This is the latest recevied weather packets stored in our database for station/object K8JMX-13. If no packets are shown the sender has not sent any weather packets the latest 1 day(s).
| Time | Temp. | Humidity | Pressure | Rain* | Wind** | Luminosity | Snow |
|---|---|---|---|---|---|---|---|
| 1777977062 | 16.67° C | 65% | 1006.3 hPa | 0 mm | 2.24 m/s, 279° | 1 W/m² | - |
| 1777976759 | 16.67° C | 66% | 1006.1 hPa | 0 mm | 0.89 m/s, 232° | 1 W/m² | - |
| 1777976457 | 17.22° C | 65% | 1006.2 hPa | 0 mm | 1.79 m/s, 234° | 0 W/m² | - |
| 1777976155 | 17.22° C | 65% | 1006.3 hPa | 0 mm | 0.89 m/s, 219° | 0 W/m² | - |
| 1777975851 | 17.22° C | 64% | 1006.4 hPa | 0 mm | 0.89 m/s, 215° | 0 W/m² | - |
| 1777975548 | 17.22° C | 64% | 1006.1 hPa | 0 mm | 0.89 m/s, 265° | 0 W/m² | - |
| 1777975245 | 17.22° C | 64% | 1006.3 hPa | 0 mm | 0.89 m/s, 161° | 0 W/m² | - |
| 1777974941 | 17.22° C | 64% | 1006.2 hPa | 0 mm | 0.89 m/s, 286° | 0 W/m² | - |
| 1777974637 | 17.22° C | 63% | 1006.1 hPa | 0 mm | 0.89 m/s, 242° | 0 W/m² | - |
| 1777974334 | 17.22° C | 63% | 1006.1 hPa | 0 mm | 0.45 m/s, 221° | 0 W/m² | - |
| 1777974030 | 17.22° C | 63% | 1006.1 hPa | 0 mm | 0.89 m/s, 75° | 0 W/m² | - |
| 1777973727 | 17.22° C | 62% | 1006.2 hPa | 0 mm | 0.45 m/s, 223° | 0 W/m² | - |
| 1777973424 | 17.78° C | 62% | 1005.8 hPa | 0 mm | 0.45 m/s, 142° | 0 W/m² | - |
| 1777973121 | 17.78° C | 61% | 1006.1 hPa | 0 mm | 1.79 m/s, 264° | 0 W/m² | - |
| 1777972820 | 17.78° C | 61% | 1005.9 hPa | 0 mm | 0.89 m/s, 275° | 0 W/m² | - |
| 1777972516 | 17.78° C | 61% | 1005.9 hPa | 0 mm | 1.34 m/s, 219° | 0 W/m² | - |
| 1777972214 | 17.78° C | 60% | 1005.8 hPa | 0 mm | 1.34 m/s, 246° | 0 W/m² | - |
| 1777971912 | 17.78° C | 60% | 1005.9 hPa | 0 mm | 1.79 m/s, 227° | 0 W/m² | - |
| 1777971610 | 17.78° C | 59% | 1005.9 hPa | 0 mm | 1.79 m/s, 237° | 0 W/m² | - |
| 1777971308 | 18.33° C | 59% | 1005.8 hPa | 0 mm | 1.79 m/s, 203° | 0 W/m² | - |
| 1777971006 | 18.33° C | 59% | 1005.7 hPa | 0 mm | 1.34 m/s, 229° | 0 W/m² | - |
| 1777970704 | 18.33° C | 58% | 1005.8 hPa | 0 mm | 1.34 m/s, 197° | 0 W/m² | - |
| 1777970401 | 18.89° C | 58% | 1005.5 hPa | 0 mm | 0.89 m/s, 247° | 0 W/m² | - |
| 1777970098 | 18.89° C | 57% | 1005.3 hPa | 0 mm | 1.79 m/s, 259° | 0 W/m² | - |
| 1777969794 | 18.89° C | 56% | 1005.3 hPa | 0 mm | 2.24 m/s, 239° | 0 W/m² | - |
* Rain latest hour (hover to see other rain measurements)
** Current wind speed in m/s (hover to see current wind gust speed)